Miscellaneous Local Product
Issued by NWS North Platte, NE

Home | Current Version | Previous Version | Graphics & Text | Print | Product List | Glossary On
Versions: 1 2 3 4 5 6 7 8 9 10 11 12 13 14 15 16 17 18 19 20 21 22 23 24 25 26 27 28 29 30 31 32 33 34 35 36 37 38 39 40 41 42 43 44 45 46 47 48 49 50
769
AXUS43 KLBF 052110
MISLBF


WESTERN AND NORTH CENTRAL NEBRASKA HOURLY WEATHER ROUNDUP
NATIONAL WEATHER SERVICE NORTH PLATTE NE
400 PM CDT THU MAY 05 2016

NOTE: "FAIR" INDICATES FEW OR NO CLOUDS BELOW 12,000 FEET WITH NO
SIGNIFICANT WEATHER AND/OR OBSTRUCTIONS TO VISIBILITY.

NOTE: STATIONS NOT REPORTING VARIABLES SUCH AS SKY/WEATHER OR
PRESSURE ARE PROVIDED BY RAWS AND APRS NETWORKS AND ARE NOT UNDER
NATIONAL WEATHER SERVICE QUALITY CONTROL.

...OBSERVATIONS IN AND NEAR THE EASTERN PANHANDLE OF NEBRASKA...

CITY           SKY/WX    TMP DP  RH WIND       PRES   REMARKS
PINE RIDGE     SUNNY     85  37  18 W10       29.92F
CHADRON        SUNNY     84  41  21 CALM      29.91F
ALLIANCE       SUNNY     83  39  21 SW13      29.97F
SIDNEY         CLOUDY    82  37  20 SW13G22   30.03F
CRESCENT LAKE    N/A     81  41  23 S13G23      N/A
BIG SPRINGS      N/A     84  44  24 S15         N/A
$$

...OBSERVATIONS IN NORTHERN NEBRASKA AND FAR SOUTHERN SOUTH DAKOTA...

CITY           SKY/WX    TMP DP  RH WIND       PRES   REMARKS
WINNER         LGT RAIN  86  48  26 S13       29.91F
VALENTINE      SUNNY     86  39  19 S13G26    29.93F
THEDFORD       SUNNY     84  45  25 S14G22    29.98F
AINSWORTH      SUNNY     82  44  25 S10       29.96F
O`NEILL        SUNNY     81  43  26 S8        30.00F
ORD            SUNNY     78  50  37 S10       30.00F
BROKEN BOW     LGT RAIN  81  52  36 S17G24    30.01F
VALENTINE NWR    N/A     85  43  22 S14G21      N/A
BUTTE            N/A     81  44  26 SE13G20     N/A
HALSEY           N/A     83  41  22 S9G16       N/A
CHAMBERS         N/A     81  49  32 S6          N/A
EWING            N/A     81  48  31 S6          N/A
$$

...OBSERVATIONS IN SOUTHWEST NEBRASKA AND FAR NORTHEAST COLORADO...

CITY           SKY/WX    TMP DP  RH WIND       PRES   REMARKS
HOLYOKE        FAIR      84  37  18 S15G23    30.02F
IMPERIAL       CLOUDY    82  41  23 S15       30.01F
OGALLALA       SUNNY     80  41  25 S15       30.00F
NORTH PLATTE   SUNNY     81  48  31 S15       30.00F
MCCOOK         CLOUDY    79  50  36 S16G24    30.01F
LEXINGTON      SUNNY     85  49  28 S10       30.02F
PAXTON           N/A     82  48  30 S12         N/A
STAPLETON        N/A     83  48  29 CALM        N/A
GOTHENBURG       N/A     80  42  25 S7          N/A
CALLAWAY         N/A     79  47  31 S13         N/A
$$

...OBSERVATIONS IN CENTRAL LINCOLN COUNTY AREA...

CITY           SKY/WX    TMP DP  RH WIND       PRES   REMARKS
N.P. AIRPORT   SUNNY     81  48  31 S15       30.00F
N.P. DOWNTOWN    N/A     82  47  29 S7G16       N/A
N.P. SOUTHEAST   N/A     82  50  32 S8G20       N/A
N.P. HILLCREST   N/A     81  47  30 S13G21      N/A
$$

...SOME OBSERVATIONS FROM AROUND THE REGION...

CITY           SKY/WX    TMP DP  RH WIND       PRES   REMARKS
DENVER         PTSUNNY   79  31  17 E8        30.07F
LARAMIE        CLOUDY    68  27  21 SW3       30.15F
CHEYENNE       CLOUDY    76  25  15 N6        30.09F
SCOTTSBLUFF    CLOUDY    85  36  17 W5        29.97F
RAPID CITY     SUNNY     82  45  27 SE10      29.90F
BISMARCK       SUNNY     87  45  23 S6G16     29.82F
PIERRE         SUNNY     87  49  26 S21       29.85F
SIOUX FALLS    MOSUNNY   75  49  39 S10       29.98F
OMAHA          MOSUNNY   76  40  27 NE5       30.03F
GRAND ISLAND   SUNNY     79  37  22 VRB6      30.03F
KANSAS CITY    PTSUNNY   73  40  30 N7        30.06F
WICHITA        MOSUNNY   80  39  23 CALM      30.05F
OKLAHOMA CITY  MOSUNNY   80  40  23 VRB3      30.05F
DALLAS         MOSUNNY   82  45  27 N7        30.02F
AMARILLO       SUNNY     85  35  16 SW5       30.06F
DODGE CITY     SUNNY     78  48  34 S10       30.06F
HAYS           SUNNY     79  46  31 S8        30.05F
GOODLAND       PTSUNNY   78  41  26 S16       30.04F
$$




USA.gov is the U.S. government's official web portal to all federal, state and local government web resources and services.